Location: Wild Duck Observatory
(38.2456°N, 85.2898°W)
Time: 16:28:30
(UTC-05:00)

Hubble Space Telescope - Visible Passes

Search period start: 16 January 2018 00:00
Search period end: 26 January 2018 00:00
Orbit: 537 x 541 km, 28.5° (Epoch: 16 January)

Date Brightness Start Highest point End Pass type
(mag) Time Alt. Az. Time Alt. Az. Time Alt. Az.
23 Jan 3.7 20:34:05 10° SW 20:34:20 11° SW 20:34:20 11° SW visible
24 Jan 3.2 18:44:43 10° S 18:46:07 11° SSE 18:47:30 10° SE visible
24 Jan 3.3 20:23:36 10° SW 20:24:44 15° SSW 20:24:44 15° SSW visible
25 Jan 3.2 18:33:42 10° SSW 18:35:43 13° SSE 18:37:46 10° SE visible
25 Jan 3.0 20:13:11 10° SW 20:15:07 18° SSW 20:15:07 18° SSW visible
